| time (UTC) | temp F | wind direction | speed MPH | gust MPH | rain 1hr in | rain 24hr in | rain mn in | humidity % | barometer mb |
| 20260504205029 | 61 | 219 | 18.0 | 30.0 | 0.00 | 0.00 | 0.00 | 76 | 1009.6 |
| 20260504204524 | 61 | 180 | 19.0 | 30.0 | 0.00 | 0.00 | 0.00 | 75 | 1009.6 |
| 20260504203958 | 61 | 181 | 18.0 | 30.0 | 0.00 | 0.00 | 0.00 | 75 | 1009.7 |
| 20260504203451 | 61 | 153 | 17.0 | 28.0 | 0.00 | 0.00 | 0.00 | 75 | 1009.7 |
| 20260504202950 | 61 | 190 | 18.0 | 28.0 | 0.00 | 0.00 | 0.00 | 74 | 1009.7 |
| 20260504202440 | 61 | 169 | 16.0 | 27.0 | 0.00 | 0.00 | 0.00 | 74 | 1009.7 |
| 20260504201937 | 62 | 199 | 15.0 | 27.0 | 0.00 | 0.00 | 0.00 | 74 | 1009.7 |
| 20260504201435 | 62 | 188 | 15.0 | 27.0 | 0.00 | 0.00 | 0.00 | 73 | 1009.7 |
| 20260504200907 | 62 | 172 | 17.0 | 28.0 | 0.00 | 0.00 | 0.00 | 73 | 1009.7 |
| 20260504200637 | 62 | 178 | 19.0 | 31.0 | 0.00 | 0.00 | 0.00 | 71 | 1009.7 |
| 20260504195903 | 62 | 165 | 20.0 | 31.0 | 0.00 | 0.00 | 0.00 | 69 | 1009.7 |
| 20260504195401 | 62 | 203 | 18.0 | 29.0 | 0.00 | 0.00 | 0.00 | 69 | 1009.9 |
| 20260504195059 | 61 | 165 | 16.0 | 24.0 | 0.00 | 0.00 | 0.00 | 72 | 1009.9 |
| 20260504194308 | 60 | 161 | 16.0 | 23.0 | 0.00 | 0.00 | 0.00 | 74 | 1009.9 |
| 20260504193757 | 61 | 181 | 15.0 | 22.0 | 0.00 | 0.00 | 0.00 | 71 | 1010.1 |
| 20260504193255 | 62 | 160 | 15.0 | 30.0 | 0.00 | 0.00 | 0.00 | 70 | 1010.1 |
| 20260504192957 | 63 | 136 | 14.0 | 30.0 | 0.00 | 0.00 | 0.00 | 67 | 1010.1 |
| 20260504192211 | 62 | 197 | 14.0 | 25.0 | 0.00 | 0.00 | 0.00 | 69 | 1010.2 |
| 20260504191709 | 64 | 188 | 15.0 | 30.0 | 0.00 | 0.00 | 0.00 | 66 | 1010.2 |
| 20260504191416 | 64 | 191 | 15.0 | 30.0 | 0.00 | 0.00 | 0.00 | 64 | 1010.2 |
| 20260504190657 | 63 | 153 | 15.0 | 24.0 | 0.00 | 0.00 | 0.00 | 67 | 1010.5 |
| 20260504190129 | 64 | 188 | 16.0 | 26.0 | 0.00 | 0.00 | 0.00 | 65 | 1010.5 |
| 20260504185627 | 64 | 176 | 16.0 | 26.0 | 0.00 | 0.00 | 0.00 | 65 | 1010.5 |
| 20260504185128 | 64 | 190 | 17.0 | 29.0 | 0.00 | 0.00 | 0.00 | 66 | 1010.5 |
| 20260504184615 | 63 | 185 | 18.0 | 30.0 | 0.00 | 0.00 | 0.00 | 67 | 1010.5 |
| 20260504184116 | 64 | 176 | 18.0 | 30.0 | 0.00 | 0.00 | 0.00 | 66 | 1010.5 |
| 20260504183615 | 64 | 176 | 16.0 | 27.0 | 0.00 | 0.00 | 0.00 | 67 | 1010.7 |
| 20260504183324 | 64 | 163 | 16.0 | 26.0 | 0.00 | 0.00 | 0.00 | 68 | 1010.7 |
| 20260504182549 | 63 | 178 | 16.0 | 29.0 | 0.00 | 0.00 | 0.00 | 69 | 1010.7 |
| 20260504182051 | 64 | 170 | 16.0 | 28.0 | 0.00 | 0.00 | 0.00 | 67 | 1010.8 |
| 20260504181542 | 64 | 207 | 17.0 | 25.0 | 0.00 | 0.00 | 0.00 | 66 | 1010.8 |
| 20260504181044 | 64 | 178 | 17.0 | 27.0 | 0.00 | 0.00 | 0.00 | 65 | 1010.8 |
| 20260504180527 | 64 | 185 | 17.0 | 28.0 | 0.00 | 0.00 | 0.00 | 65 | 1011.1 |
| 20260504180030 | 64 | 186 | 17.0 | 28.0 | 0.00 | 0.00 | 0.00 | 66 | 1011.1 |
| 20260504175510 | 63 | 199 | 15.0 | 31.0 | 0.00 | 0.00 | 0.00 | 67 | 1011.2 |
| 20260504175005 | 63 | 146 | 15.0 | 31.0 | 0.00 | 0.00 | 0.00 | 66 | 1011.2 |
| 20260504174507 | 64 | 175 | 17.0 | 28.0 | 0.00 | 0.00 | 0.00 | 66 | 1011.2 |
| 20260504173950 | 64 | 182 | 18.0 | 28.0 | 0.00 | 0.00 | 0.00 | 67 | 1011.2 |
| 20260504173423 | 63 | 170 | 16.0 | 27.0 | 0.00 | 0.00 | 0.00 | 68 | 1011.2 |
| 20260504172921 | 63 | 162 | 13.0 | 20.0 | 0.00 | 0.00 | 0.00 | 68 | 1011.2 |
| 20260504172423 | 63 | 173 | 12.0 | 19.0 | 0.00 | 0.00 | 0.00 | 68 | 1011.7 |
| 20260504171911 | 64 | 176 | 13.0 | 23.0 | 0.00 | 0.00 | 0.00 | 65 | 1011.7 |
| 20260504171339 | 64 | 199 | 15.0 | 25.0 | 0.00 | 0.00 | 0.00 | 64 | 1011.7 |
| 20260504170837 | 64 | 190 | 16.0 | 27.0 | 0.00 | 0.00 | 0.00 | 66 | 1011.8 |
| 20260504170338 | 64 | 195 | 16.0 | 30.0 | 0.00 | 0.00 | 0.00 | 64 | 1011.8 |
| 20260504150714 | 63 | 171 | 13.0 | 25.0 | 0.00 | 0.00 | 0.00 | 63 | 1012.8 |
| 20260504141254 | 62 | 182 | 13.0 | 25.0 | 0.00 | 0.00 | 0.00 | 62 | 1013.0 |
| 20260504140754 | 62 | 201 | 12.0 | 20.0 | 0.00 | 0.00 | 0.00 | 61 | 1013.3 |
| 20260504140224 | 62 | 175 | 12.0 | 21.0 | 0.00 | 0.00 | 0.00 | 61 | 1013.3 |
| 20260504130611 | 61 | 204 | 12.0 | 17.0 | 0.00 | 0.00 | 0.00 | 58 | 1013.8 |
| 20260504130319 | 60 | 210 | 13.0 | 18.0 | 0.00 | 0.00 | 0.00 | 59 | 1013.8 |
| 20260504110240 | 52 | 204 | 13.0 | 20.0 | 0.00 | 0.00 | 0.00 | 74 | 1014.4 |
| 20260504100515 | 52 | 232 | 15.0 | 21.0 | 0.00 | 0.00 | 0.00 | 70 | 1014.1 |
| 20260504081719 | 53 | 242 | 13.0 | 23.0 | 0.00 | 0.00 | 0.00 | 63 | 1013.9 |
| 20260504081220 | 53 | 219 | 13.0 | 20.0 | 0.00 | 0.00 | 0.00 | 61 | 1013.9 |
| 20260504080705 | 54 | 219 | 14.0 | 20.0 | 0.00 | 0.00 | 0.00 | 60 | 1013.8 |
| 20260504080428 | 54 | 233 | 14.0 | 19.0 | 0.00 | 0.00 | 0.00 | 59 | 1013.8 |
| 20260504060200 | 54 | 230 | 12.0 | 16.0 | 0.00 | 0.00 | 0.00 | 57 | 1013.3 |
| 20260504050554 | 54 | 240 | 12.0 | 16.0 | 0.00 | 0.00 | 0.00 | 55 | 1013.3 |
| 20260504045532 | 54 | 217 | 12.0 | 17.0 | 0.00 | 0.00 | 0.00 | 54 | 1013.3 |
| 20260504045020 | 54 | 234 | 12.0 | 17.0 | 0.00 | 0.00 | 0.00 | 53 | 1013.1 |
| 20260504044519 | 54 | 231 | 12.0 | 17.0 | 0.00 | 0.00 | 0.00 | 54 | 1013.1 |
| 20260504043958 | 54 | 232 | 12.0 | 17.0 | 0.00 | 0.00 | 0.00 | 53 | 1013.1 |
| 20260504043953 | 54 | 238 | 12.0 | 17.0 | 0.00 | 0.00 | 0.00 | 54 | 1012.9 |
| 20260504042931 | 54 | 219 | 12.0 | 17.0 | 0.00 | 0.00 | 0.00 | 53 | 1012.9 |
| 20260504042429 | 54 | 253 | 13.0 | 18.0 | 0.00 | 0.00 | 0.00 | 53 | 1012.9 |
| 20260504042152 | 54 | 230 | 13.0 | 18.0 | 0.00 | 0.00 | 0.00 | 53 | 1012.9 |
| 20260504041429 | 54 | 236 | 12.0 | 17.0 | 0.00 | 0.00 | 0.00 | 54 | 1012.9 |
| 20260504040929 | 54 | 236 | 11.0 | 17.0 | 0.00 | 0.00 | 0.00 | 53 | 1012.8 |
| 20260504040859 | 54 | 214 | 11.0 | 16.0 | 0.00 | 0.00 | 0.00 | 53 | 1012.8 |
| 20260504035919 | 54 | 230 | 11.0 | 17.0 | 0.00 | 0.00 | 0.00 | 53 | 1012.8 |
| 20260504035418 | 54 | 238 | 11.0 | 17.0 | 0.00 | 0.00 | 0.00 | 53 | 1012.7 |
| 20260504034919 | 54 | 235 | 11.0 | 16.0 | 0.00 | 0.00 | 0.00 | 53 | 1012.7 |
| 20260504034628 | 54 | 225 | 11.0 | 16.0 | 0.00 | 0.00 | 0.00 | 53 | 1012.7 |
| 20260504033908 | 54 | 214 | 11.0 | 16.0 | 0.00 | 0.00 | 0.00 | 52 | 1012.7 |
| 20260504033355 | 54 | 229 | 12.0 | 18.0 | 0.00 | 0.00 | 0.00 | 51 | 1012.7 |
| 20260504032852 | 54 | 229 | 12.0 | 18.0 | 0.00 | 0.00 | 0.00 | 52 | 1012.7 |
| 20260504032354 | 54 | 226 | 12.0 | 17.0 | 0.00 | 0.00 | 0.00 | 52 | 1012.7 |
| 20260504031851 | 54 | 206 | 11.0 | 17.0 | 0.00 | 0.00 | 0.00 | 51 | 1012.7 |
| 20260504031352 | 54 | 217 | 11.0 | 16.0 | 0.00 | 0.00 | 0.00 | 52 | 1012.7 |
| 20260504030837 | 54 | 224 | 11.0 | 16.0 | 0.00 | 0.00 | 0.00 | 52 | 1012.6 |
| 20260504030336 | 54 | 224 | 10.0 | 16.0 | 0.00 | 0.00 | 0.00 | 52 | 1012.6 |
| 20260504025837 | 55 | 232 | 10.0 | 15.0 | 0.00 | 0.00 | 0.00 | 52 | 1012.6 |
| 20260504025307 | 55 | 225 | 10.0 | 13.0 | 0.00 | 0.00 | 0.00 | 52 | 1012.7 |
| 20260504024804 | 55 | 239 | 10.0 | 14.0 | 0.00 | 0.00 | 0.00 | 52 | 1012.7 |
| 20260504024306 | 55 | 241 | 10.0 | 15.0 | 0.00 | 0.00 | 0.00 | 51 | 1012.7 |
| 20260504023750 | 55 | 217 | 10.0 | 15.0 | 0.00 | 0.00 | 0.00 | 50 | 1012.7 |
| 20260504023225 | 55 | 237 | 11.0 | 16.0 | 0.00 | 0.00 | 0.00 | 50 | 1012.7 |
| 20260504022721 | 55 | 233 | 12.0 | 16.0 | 0.00 | 0.00 | 0.00 | 49 | 1012.7 |
| 20260504022218 | 55 | 229 | 10.0 | 15.0 | 0.00 | 0.00 | 0.00 | 49 | 1012.6 |
| 20260504021708 | 55 | 235 | 10.0 | 15.0 | 0.00 | 0.00 | 0.00 | 50 | 1012.6 |
| 20260504021145 | 56 | 231 | 10.0 | 14.0 | 0.00 | 0.00 | 0.00 | 51 | 1012.6 |
| 20260504020647 | 56 | 226 | 9.0 | 13.0 | 0.00 | 0.00 | 0.00 | 52 | 1012.6 |
| 20260504020127 | 56 | 236 | 10.0 | 14.0 | 0.00 | 0.00 | 0.00 | 51 | 1012.6 |
| 20260504015850 | 56 | 235 | 11.0 | 14.0 | 0.00 | 0.00 | 0.00 | 50 | 1012.6 |
| 20260504015106 | 56 | 248 | 10.0 | 14.0 | 0.00 | 0.00 | 0.00 | 50 | 1012.5 |
| 20260504014603 | 56 | 234 | 10.0 | 14.0 | 0.00 | 0.00 | 0.00 | 50 | 1012.5 |
| 20260504014058 | 56 | 220 | 10.0 | 14.0 | 0.00 | 0.00 | 0.00 | 50 | 1012.5 |
| 20260504013539 | 56 | 217 | 10.0 | 14.0 | 0.00 | 0.00 | 0.00 | 49 | 1012.3 |
| 20260504013042 | 56 | 230 | 10.0 | 14.0 | 0.00 | 0.00 | 0.00 | 49 | 1012.3 |
| 20260504012514 | 56 | 239 | 10.0 | 14.0 | 0.00 | 0.00 | 0.00 | 47 | 1012.3 |
| 20260504012012 | 57 | 219 | 10.0 | 14.0 | 0.00 | 0.00 | 0.00 | 48 | 1012.1 |
| 20260504011924 | 57 | 235 | 9.0 | 14.0 | 0.00 | 0.00 | 0.00 | 48 | 1012.1 |
| 20260504010940 | 57 | 226 | 9.0 | 13.0 | 0.00 | 0.00 | 0.00 | 49 | 1011.8 |
| 20260504010440 | 57 | 244 | 8.0 | 13.0 | 0.00 | 0.00 | 0.00 | 48 | 1011.8 |
| 20260504005914 | 57 | 215 | 8.0 | 12.0 | 0.00 | 0.00 | 0.00 | 49 | 1011.8 |
| 20260504005414 | 57 | 219 | 8.0 | 12.0 | 0.00 | 0.00 | 0.00 | 48 | 1011.8 |
| 20260504004852 | 57 | 228 | 7.0 | 12.0 | 0.00 | 0.00 | 0.00 | 48 | 1011.8 |
| 20260504004611 | 57 | 204 | 7.0 | 11.0 | 0.00 | 0.00 | 0.00 | 48 | 1011.8 |
| 20260504003848 | 58 | 218 | 8.0 | 12.0 | 0.00 | 0.00 | 0.00 | 47 | 1011.6 |
| 20260504003350 | 58 | 211 | 8.0 | 12.0 | 0.00 | 0.00 | 0.00 | 46 | 1011.6 |
| 20260504002838 | 58 | 230 | 9.0 | 12.0 | 0.00 | 0.00 | 0.00 | 45 | 1011.6 |
| 20260504002605 | 58 | 253 | 9.0 | 12.0 | 0.00 | 0.00 | 0.00 | 44 | 1011.3 |
| 20260504001836 | 58 | 242 | 8.0 | 12.0 | 0.00 | 0.00 | 0.00 | 44 | 1011.3 |
| 20260504001600 | 58 | 222 | 7.0 | 11.0 | 0.00 | 0.00 | 0.00 | 44 | 1011.3 |
| 20260504001049 | 58 | 222 | 7.0 | 11.0 | 0.00 | 0.00 | 0.00 | 42 | 1011.2 |
| 20260504000333 | 59 | 239 | 6.0 | 10.0 | 0.00 | 0.00 | 0.00 | 41 | 1011.2 |
| 20260503235814 | 59 | 226 | 6.0 | 10.0 | 0.00 | 0.00 | 0.00 | 44 | 1011.2 |
| 20260503235312 | 59 | 251 | 5.0 | 10.0 | 0.00 | 0.00 | 0.00 | 44 | 1011.2 |
| 20260503235036 | 59 | 250 | 6.0 | 10.0 | 0.00 | 0.00 | 0.00 | 42 | 1011.2 |
| 20260503234257 | 59 | 251 | 6.0 | 10.0 | 0.00 | 0.00 | 0.00 | 40 | 1011.2 |
| 20260503233754 | 59 | 242 | 6.0 | 10.0 | 0.00 | 0.00 | 0.00 | 38 | 1010.9 |
| 20260503233254 | 60 | 236 | 7.0 | 13.0 | 0.00 | 0.00 | 0.00 | 38 | 1010.9 |
| 20260503233003 | 60 | 290 | 7.0 | 13.0 | 0.00 | 0.00 | 0.00 | 37 | 1010.9 |
| 20260503232242 | 60 | 298 | 8.0 | 14.0 | 0.00 | 0.00 | 0.00 | 35 | 1011.0 |
| 20260503231727 | 60 | 270 | 8.0 | 15.0 | 0.00 | 0.00 | 0.00 | 35 | 1011.0 |
| 20260503231219 | 60 | 285 | 9.0 | 16.0 | 0.00 | 0.00 | 0.00 | 35 | 1011.0 |
| 20260503230713 | 60 | 295 | 11.0 | 16.0 | 0.00 | 0.00 | 0.00 | 34 | 1010.9 |
| 20260503230214 | 60 | 219 | 11.0 | 16.0 | 0.00 | 0.00 | 0.00 | 34 | 1010.9 |
| 20260503230123 | 60 | 289 | 13.0 | 21.0 | 0.00 | 0.00 | 0.00 | 33 | 1010.9 |
| 20260503225141 | 60 | 257 | 13.0 | 21.0 | 0.00 | 0.00 | 0.00 | 35 | 1010.7 |
| 20260503224642 | 60 | 265 | 11.0 | 17.0 | 0.00 | 0.00 | 0.00 | 34 | 1010.7 |
| 20260503224113 | 61 | 258 | 11.0 | 18.0 | 0.00 | 0.00 | 0.00 | 35 | 1010.7 |
| 20260503223610 | 61 | 292 | 13.0 | 21.0 | 0.00 | 0.00 | 0.00 | 34 | 1010.7 |
| 20260503223111 | 61 | 293 | 14.0 | 21.0 | 0.00 | 0.00 | 0.00 | 35 | 1010.7 |
| 20260503222550 | 61 | 302 | 14.0 | 20.0 | 0.00 | 0.00 | 0.00 | 34 | 1010.7 |
| 20260503222049 | 61 | 296 | 13.0 | 20.0 | 0.00 | 0.00 | 0.00 | 33 | 1010.7 |
| 20260503221815 | 61 | 298 | 16.0 | 26.0 | 0.00 | 0.00 | 0.00 | 35 | 1010.7 |
| 20260503221032 | 61 | 330 | 17.0 | 27.0 | 0.00 | 0.00 | 0.00 | 34 | 1010.7 |
| 20260503220527 | 61 | 246 | 15.0 | 27.0 | 0.00 | 0.00 | 0.00 | 33 | 1010.6 |
| 20260503220028 | 62 | 261 | 14.0 | 23.0 | 0.00 | 0.00 | 0.00 | 33 | 1010.6 |
| 20260503215506 | 61 | 252 | 15.0 | 23.0 | 0.00 | 0.00 | 0.00 | 33 | 1010.6 |
| 20260503215006 | 61 | 303 | 15.0 | 25.0 | 0.00 | 0.00 | 0.00 | 33 | 1010.5 |
| 20260503214705 | 61 | 286 | 15.0 | 25.0 | 0.00 | 0.00 | 0.00 | 33 | 1010.5 |
| 20260503213948 | 61 | 284 | 15.0 | 22.0 | 0.00 | 0.00 | 0.00 | 34 | 1010.5 |
| 20260503213447 | 62 | 299 | 15.0 | 21.0 | 0.00 | 0.00 | 0.00 | 32 | 1010.5 |
| 20260503212945 | 62 | 301 | 15.0 | 21.0 | 0.00 | 0.00 | 0.00 | 34 | 1010.5 |
| 20260503212441 | 62 | 280 | 14.0 | 24.0 | 0.00 | 0.00 | 0.00 | 34 | 1010.6 |
| 20260503211940 | 61 | 285 | 16.0 | 24.0 | 0.00 | 0.00 | 0.00 | 35 | 1010.6 |
| 20260503211437 | 61 | 315 | 16.0 | 24.0 | 0.00 | 0.00 | 0.00 | 34 | 1010.6 |
| 20260503210914 | 61 | 291 | 16.0 | 28.0 | 0.00 | 0.00 | 0.00 | 36 | 1010.5 |
| 20260503210417 | 61 | 269 | 15.0 | 28.0 | 0.00 | 0.00 | 0.00 | 35 | 1010.5 |
| 20260503205851 | 61 | 284 | 15.0 | 24.0 | 0.00 | 0.00 | 0.00 | 32 | 1010.5 |